This demonstration page uses our WeatherBlox Daily Observations layout. Learn more.

Left ArrowRight Arrow

Hourly Observations for May 25, 2022

Temp ( °F °C ) Dew Point ( °F °C ) Humidity (%) Winds ( mph kmh ) Pressure ( in mb ) Visibility ( mi km ) Precip ( " mm )
12:53 am 00:53 Mostly Clear 66 18.9 59 15 78 78 VRB 3 6 30.12 1020 10 16 0.00 0.00
1:53 am 01:53 Clear 62 16.7 59 15 90 90 E 5 7 30.10 1019 10 16 0.00 0.00
2:53 am 02:53 Partly Cloudy 64 17.8 59 15 84 84 E 6 9 30.08 1019 10 16 0.00 0.00
3:53 am 03:53 Cloudy 65 18.3 60 15.6 84 84 E 7 11 30.06 1018 10 16 0.00 0.00
4:53 am 04:53 Cloudy 66 18.9 60 15.6 81 81 Calm 30.07 1018 10 16 0.00 0.00
5:53 am 05:53 Cloudy 66 18.9 60 15.6 81 81 E 6 9 30.06 1018 10 16 0.00 0.00
6:53 am 06:53 Mostly Cloudy 67 19.4 60 15.6 79 79 VRB 3 6 30.08 1019 10 16 0.00 0.00
7:53 am 07:53 Cloudy 67 19.4 61 16.1 81 81 VRB 3 6 30.08 1019 10 16 0.00 0.00
8:53 am 08:53 Mostly Cloudy 69 20.6 62 16.7 78 78 VRB 3 6 30.08 1019 10 16 0.00 0.00
9:53 am 09:53 Mostly Cloudy 70 21.1 62 16.7 76 76 ESE 5 7 30.09 1019 10 16 0.00 0.00
10:53 am 10:53 Mostly Cloudy 72 22.2 64 17.8 76 76 VRB 7 11 30.08 1019 10 16 0.00 0.00
11:53 am 11:53 Mostly Sunny 74 23.3 65 18.3 74 74 ESE 6 9 30.06 1018 10 16 0.00 0.00
12:53 pm 12:53 Sunny 80 26.7 66 18.9 62 62 undefined N/A 30.04 1017 10 16 0.00 0.00
1:53 pm 13:53 Mostly Sunny 81 27.2 66 18.9 61 61 VRB 6 9 30.02 1017 10 16 0.00 0.00
2:53 pm 14:53 Mostly Cloudy 82 27.8 67 19.4 60 60 VRB 6 9 30.01 1016 10 16 0.00 0.00
3:53 pm 15:53 Partly Cloudy 82 27.8 67 19.4 60 60 VRB 6 9 29.98 1015 10 16 0.00 0.00
4:53 pm 16:53 Mostly Sunny 82 27.8 68 20 63 63 VRB 6 9 29.95 1014 10 16 0.00 0.00
5:03 pm 17:03 Sunny with Nearby Thunderstorms 81 27.2 66 18.9 61 61 VRB 3 6 29.93 1014 10 16 0.00 0.00
5:16 pm 17:16 Mostly Cloudy with Thunderstorms 80 26.7 67 19.4 64 64 Calm 29.93 1014 10 16 0.00 0.00
5:53 pm 17:53 Partly Cloudy with Nearby Thunderstorms 80 26.7 69 20.6 69 69 Calm 29.92 1013 10 16 0.00 0.00
6:13 pm 18:13 Mostly Cloudy with Thunderstorms 79 26.1 68 20 69 69 VRB 6 9 29.90 1013 10 16 0.01 0.25
6:28 pm 18:28 Cloudy with Nearby Thunderstorms 75 23.9 70 21.1 84 84 Calm 29.92 1013 10 16 0.01 0.25
6:53 pm 18:53 Mostly Cloudy 77 25 71 21.7 82 82 Calm 29.92 1013 10 16 0.01 0.25
7:48 pm 19:48 Cloudy with Nearby Thunderstorms 81 27 66 19 62 62 VRB 6 9 29.90 1013 10 16 0.00 0.00
7:53 pm 19:53 Cloudy with Nearby Thunderstorms 78 25.6 69 20.6 74 74 VRB 3 6 29.92 1013 10 16 0.00 0.00
8:03 pm 20:03 Mostly Cloudy 75 23.9 70 21.1 84 84 Calm 29.92 1013 10 16 0.00 0.00
8:53 pm 20:53 Mostly Cloudy 73 22.8 70 21.1 90 90 Calm 29.92 1013 10 16 0.00 0.00
9:53 pm 21:53 Mostly Cloudy 73 22.8 70 21.1 90 90 Calm 29.93 1014 10 16 0.00 0.00
10:53 pm 22:53 Cloudy 72 22.2 69 20.6 91 91 Calm 29.94 1014 10 16 0.00 0.00
11:53 pm 23:53 Mostly Cloudy 73 22.8 67 19.4 81 81 VRB 5 7 29.94 1014 10 16 0.00 0.00

Powered by AerisWeather